Location: Byszew
(52.1813°N, 19.2693°E)
Time: 22:45:19
(UTC+00:00)

Cosmos 2322 Rocket - Pass Details

Date: 03 July 2021
Orbit: 833 x 850 km, 71.0° (Epoch: 26 July)

Event Time Altitude Azimuth Distance (km) Brightness Sun altitude
Rises 00:49:12 0° 329° (NNW) 3,422 5.8 -10.3°
Reaches altitude 10° 00:51:44 10° 335° (NNW) 2,480 5.2 -10.1°
Maximum altitude 00:57:19 55° 53° (NE) 1,016 3.1 -9.7°
Drops below altitude 10° 01:02:50 10° 130° (SE) 2,454 4.5 -9.2°
Sets 01:05:20 0° 135° (SE) 3,383 5.2 -9.0°
